Location: *
(12.0500°S, 93.8500°E)
Time: 12:47:27
(UTC+00:00)

Daily predictions for brighter satellites

Satellite Brightness Start Highest point End
(mag) Time Altitude Azimuth Time Altitude Azimuth Time Altitude Azimuth
IRS-1C Rocket 4.2 12:05:13 10° SSE 12:10:26 60° ENE 12:15:36 10° N
YAOGAN 6 3.9 12:07:13 10° S 12:10:36 41° WSW 12:13:58 10° NNW
NOSS 0 Rocket 3.9 12:16:15 10° S 12:22:20 59° ESE 12:28:20 10° NNE
Cosmos 1937 Rocket 3.6 12:18:05 10° NNW 12:23:19 80° WSW 12:28:33 10° S
YAOGAN 1 3.6 12:21:39 15° SE 12:24:18 25° E 12:27:50 10° NNE
Cosmos 1626 Rocket 3.8 12:21:19 10° S 12:25:46 74° W 12:30:11 10° N
Cosmos 2228 3.0 12:21:53 10° N 12:26:16 82° E 12:30:40 10° S
SL-08 R/B 4.5 12:20:39 10° S 12:26:57 67° E 12:33:08 10° NNE
Cosmos 1980 3.9 12:24:11 10° S 12:29:36 46° ESE 12:34:58 10° NE
Cosmos 1758 Rocket 4.2 12:25:59 10° SSE 12:30:02 33° E 12:34:04 10° NNE
Cosmos 2219 Rocket 3.6 12:27:44 10° SW 12:32:58 41° WNW 12:38:10 10° N
Cosmos 2227 4.4 12:31:01 10° N 12:36:30 50° ENE 12:40:40 17° SE
Helios 1A Rocket 4.0 12:33:04 10° S 12:37:05 47° WSW 12:41:03 10° NNW
NOAA 11 4.1 12:31:40 10° SSE 12:37:10 88° ENE 12:42:35 10° NNW
SJ 16-02 4.2 12:39:50 10° WNW 12:42:06 14° WSW 12:44:21 10° SW
Cosmos 1300 2.8 12:40:43 10° N 12:44:24 50° E 12:45:53 31° SE
Cosmos 2237 Rocket 2.1 12:39:46 10° S 12:45:23 64° ESE 12:51:00 10° NNE
Cosmos 2315 Rocket 4.0 12:39:33 10° N 12:45:54 73° E 12:52:15 10° S
H-2A R/B 3.6 12:47:16 19° ENE 12:47:16 19° ENE 12:50:18 10° NE
NOSS 3-1 (C) 4.5 12:46:44 10° NNW 12:55:41 75° WSW 13:04:07 11° SSE
Cosmos 2263 Rocket 2.1 12:50:58 10° N 12:56:30 71° ENE 12:59:38 27° SSE
CZ-2C R/B 2.5 12:54:15 10° NNE 12:59:17 56° ESE 13:04:23 10° S
KM-V1 4.2 12:56:39 10° WSW 12:59:27 47° SW 12:59:27 47° SW
Cosmos 1356 Rocket 3.3 12:56:58 10° N 13:00:59 85° W 13:02:43 33° S
Cosmos 44 4.2 12:57:03 10° SW 13:01:20 44° WNW 13:05:27 10° N
GPS 2-17 Rocket1 4.0 12:58:29 10° WSW 13:02:27 31° S 13:02:53 31° S
SL-08 ROCKET BODY 4.4 12:57:36 10° S 13:03:30 78° W 13:09:25 10° N
CZ-2C R/B 3.7 13:03:27 38° E 13:03:47 39° E 13:09:01 10° NNE
Cosmos 2058 Rocket 3.2 12:59:30 10° N 13:03:51 73° W 13:06:48 20° S
Cosmos 1825 Rocket 3.4 13:00:03 13° S 13:03:59 76° E 13:08:23 10° N
Cosmos 2298 Rocket 3.9 12:59:28 10° N 13:04:46 78° ENE 13:07:06 35° SSE
Cosmos 2285 Rocket 4.0 12:58:30 10° NNW 13:04:48 83° WSW 13:10:06 16° S
Orbus 7S 4.1 12:59:34 10° NW 13:04:57 36° NNE 13:05:14 35° NNE
CSL-04 Rocket 3.6 13:07:50 40° SE 13:09:45 65° ENE 13:15:11 10° N
Cosmos 1745 Rocket 4.4 13:07:40 10° SSW 13:13:46 63° W 13:19:52 10° N
CSL-04 Debris 4.0 13:13:00 41° SSE 13:14:58 79° ENE 13:20:25 10° N
USA 229 DEB 4.4 13:07:34 10° NW 13:15:10 61° WSW 13:20:58 18° S
USA 229 4.4 13:07:38 10° NW 13:15:15 62° WSW 13:21:02 18° S
Sakura Rocket 3.3 13:12:32 10° WSW 13:15:40 47° SW 13:15:40 47° SW
Cosmos 1461 3.0 13:14:47 10° NNW 13:19:02 75° N 13:19:02 75° N
Delta 202 3.7 13:16:16 10° WSW 13:21:38 76° SSE 13:22:28 65° ESE
NOSS 3-1 (A) 4.4 13:17:44 10° NNW 13:26:41 74° WSW 13:31:55 28° SSE
CZ-4 R/B 3.3 13:24:41 15° SSW 13:27:08 27° WSW 13:30:30 10° NW
Delta 142 3.9 13:26:29 10° WNW 13:31:45 72° W 13:31:45 72° W
Cosmos 1680 Rocket 4.0 13:37:42 10° SSW 13:42:54 57° WNW 13:48:05 10° N
USA 215 3.8 14:01:05 49° SW 14:01:05 49° SW 14:05:37 10° SW
ATLAS CENTAUR R/B 4.1 14:06:29 10° NNW 14:10:22 49° N 14:10:22 49° N
Milstar 3 Cent rocket 3.9 14:08:25 10° NW 14:10:17 24° NW 14:10:17 24° NW
H-2A R/B 4.3 14:27:53 22° WNW 14:27:53 22° WNW 14:30:18 10° NW
Cosmos 2297 Rocket 4.4 21:29:04 17° SE 21:30:34 19° ESE 21:34:27 10° ENE
Centaur D-1AR AC-48 3.2 21:34:23 54° ESE 21:34:23 54° ESE 21:37:37 10° E
ALOS 3.7 21:45:23 10° NNE 21:48:19 34° NE 21:48:19 34° NE
ARIANE 5 R/B 4.2 21:54:49 23° N 21:55:53 25° NNE 22:05:31 10° ENE
Cosmos 2279 Rocket 4.1 21:57:00 64° N 21:57:00 64° N 22:02:08 10° N
GPS 2-15 Rocket1 4.3 22:01:25 37° ESE 22:01:25 37° ESE 22:04:38 10° E
ATLAS 5 CENTAUR R/B 3.8 21:54:47 10° N 22:01:26 45° ENE 22:08:13 10° SE
GPS 2-12 Rocket1 4.4 22:02:20 34° NNE 22:02:20 34° NNE 22:06:13 10° E
BREEZE-M R/B 3.7 22:14:08 59° WSW 22:15:17 76° NW 22:31:45 10° NE
Cosmos 2227 Rocket 3.1 22:12:15 22° S 22:15:33 46° ESE 22:20:58 10° NE
Cosmos 1707 4.4 22:13:09 10° N 22:14:58 26° N 22:14:58 26° N
Ariane H10+ 3.3 22:17:00 48° NNW 22:17:23 50° N 22:26:13 10° E
Atlas Centaur 2 4.4 22:17:28 20° SSW 22:18:33 21° S 22:24:23 10° SE
ARIANE 5 R/B 2.7 22:18:54 31° N 22:19:30 33° NNE 22:27:19 10° E
Meteor 1-22 Rocket 4.3 22:17:05 27° S 22:20:34 81° E 22:26:20 10° N
Delta 198 3.8 22:20:24 65° NW 22:21:07 79° NNE 22:25:53 10° ESE
Cosmos 2195 Rocket 4.5 22:15:01 10° N 22:21:18 84° E 22:27:40 10° S
Maqsat-B 4.1 22:17:41 30° WNW 22:23:07 64° N 22:27:27 10° ENE
Lacrosse 4 Rocket 4.1 22:27:00 10° NNW 22:27:00 10° NNW 22:27:03 10° NNW
Cosmos 1455 Rocket 3.8 22:26:27 18° SSE 22:29:30 52° E 22:33:42 10° NNE
Cosmos 540 Rocket 3.3 22:24:43 10° NNW 22:29:52 84° WSW 22:35:04 10° S
Cosmos 1570 Rocket 3.9 22:26:12 10° NNW 22:31:28 69° WSW 22:36:49 10° S
Cosmos 841 Rocket 3.4 22:31:33 10° NNW 22:36:42 65° WSW 22:41:56 10° S
SL-16 R/B 2.6 22:31:59 10° N 22:37:34 66° ENE 22:43:12 10° SSE
Cosmos 2219 3.2 22:36:29 38° SW 22:38:35 63° WNW 22:44:11 10° N
CZ-4B R/B 3.4 22:34:36 10° N 22:38:45 46° WNW 22:38:45 46° WNW
Ariane H10+ 3.2 22:39:09 18° NW 22:39:44 19° NNW 22:41:57 10° NNE
Cosmos 1025 Rocket 2.9 22:36:07 10° NNW 22:40:20 62° W 22:41:45 39° SSW
Cosmos 2026 Rocket 3.8 22:34:25 10° N 22:40:27 77° W 22:46:37 10° S
SJ-12 4.2 22:43:27 10° N 22:47:17 42° W 22:47:22 42° W
Hubble Space Telescope 2.9 22:51:11 13° S 22:51:11 13° S 22:52:45 10° SSE
ARIANE 5 R/B 4.3 22:49:24 10° N 22:51:18 14° NNE 22:54:32 10° ENE
Cosmos 1092 Rocket 4.4 22:48:05 10° NNW 22:53:47 38° W 22:59:28 10° SSW
H-2A R/B 3.5 22:55:50 10° NNE 22:59:38 55° ESE 23:03:29 10° S
Cosmos 1674 3.1 22:56:17 10° N 22:59:56 61° E 23:03:37 10° SSE
Cosmos 1818 3.5 22:55:15 10° NNW 23:00:34 61° WSW 23:05:54 10° SSE
CZ-4B R/B 2.2 23:01:57 31° W 23:01:57 31° W 23:04:41 10° NW
Cosmos 1536 Rocket 3.9 22:58:23 10° NNW 23:02:25 38° W 23:06:29 10° SSW
NOAA 6 4.1 22:58:35 10° NNE 23:03:41 82° ESE 23:08:50 10° S
SAR-Lupe-4 4.4 23:04:35 27° W 23:04:35 27° W 23:07:22 10° NW
SJ 16-02 1.6 23:00:17 10° S 23:04:42 71° ESE 23:09:05 10° NNE
SL-24 R/B - RUBIN 2 4.1 23:00:11 10° NNW 23:05:47 79° ENE 23:10:43 10° SSE
Cosmos 1437 2.4 23:05:37 10° N 23:08:35 90° S 23:11:35 10° S
COSMO-SKYMED 1 4.3 23:05:56 10° SSE 23:09:56 36° E 23:13:55 10° NNE
Cosmos 1726 3.4 23:06:23 10° SSE 23:09:56 43° E 23:13:30 10° NNE
Cosmos 1340 Rocket 2.8 23:07:21 10° S 23:11:27 90° NW 23:15:30 10° N
Cosmos 1544 Rocket 3.6 23:08:22 10° SSW 23:12:38 57° W 23:16:53 10° N
Cosmos 2297 Rocket 3.0 23:10:57 17° SW 23:14:25 31° WNW 23:19:20 10° NNW
Cosmos 2322 Rocket 2.2 23:11:50 10° NNW 23:17:26 60° WSW 23:23:04 10° S
Cosmos 1655 Rocket 4.1 23:12:07 10° N 23:18:23 85° E 23:24:39 10° S
H-2A R/B 3.6 23:15:54 10° NNW 23:18:53 21° W 23:20:35 16° WSW
Meteor 2-5 Rocket 4.2 23:14:20 10° N 23:19:55 65° E 23:25:26 10° SSE
Cosmos 2266 Rocket 4.5 23:17:54 10° N 23:24:12 67° E 23:30:27 10° S
Envisat 3.2 23:23:02 10° NNE 23:28:05 76° ESE 23:33:11 10° S
SEDSat Delta rocket 4.1 23:27:54 10° WNW 23:34:06 47° SSW 23:39:42 10° SE
Okean O Rocket 1.7 23:30:23 10° N 23:34:43 62° WNW 23:39:09 10° SSW
Ariane H10 3.2 23:34:01 10° WNW 23:36:18 34° N 23:39:54 10° ENE
Palapa B4 Rocket 3.9 23:33:06 10° W 23:37:36 55° S 23:44:33 10° ESE
Cosmos 1758 4.5 23:36:31 10° SW 23:39:50 24° W 23:43:08 10° NNW
ADEOS Rocket 3.0 23:35:58 10° S 23:41:26 52° WSW 23:47:18 10° NNW
GPS 2-15 Rocket1 3.4 23:39:28 10° W 23:44:15 64° NNW 23:48:56 10° ENE
GPS 2-12 Rocket1 3.0 23:40:53 10° WNW 23:45:29 78° SSW 23:50:00 10° ESE
ATLAS 5 CENTAUR R/B 3.7 23:40:34 10° WNW 23:46:13 25° WSW 23:51:52 10° S
Aurora 2 Rocket 4.4 23:37:15 10° WSW 23:46:13 53° SSE 23:52:36 10° E
Delta 2 Rocket 4.5 23:39:37 10° WSW 23:47:36 67° NNW 23:54:13 10° NE
Centaur AC-64 3.0 23:47:03 10° WNW 23:56:14 53° SSW 23:58:59 10° SE
